Zurück zum Katalog

STARLINK-37317

AktivKommunikationVLEO
NORAD 69152·PAYLOAD·🇺🇸 United States

Gestartet May 21, 2026 von Cape Canaveral Space Force Station

Loading…

Nächste Überflüge (nächste 24 Stunden)

TLE

AktuellSource: CelesTrak SupGP

Epoche: Sep 14, 2026, 23:24 UTC

1 69152C 26111E   26257.97548611  .00027043  00000+0  79920-3 0  2579
2 69152  53.1579  91.7975 0001193  85.0312  37.8476 15.34368957    13

Verfolge STARLINK-37317 in Echtzeit mit AllMySat

Download on the App Store